POERUNWV Weather Reports


time (UTC)temp
C
wind
direction
speed
KPH
gust
KPH
rain 1hr
cm
rain 24hr
cm
rain mn
cm
humidity
%
barometer
mb
20260505023043 15 0 0.0 3.2 0.00 0.00 0.00 59 1012.1
20260505021537 14 117 1.6 4.8 0.00 0.00 0.00 60 1012.1
20260505020035 13 105 1.6 4.8 0.00 0.00 0.00 61 1012.2
20260505014541 14 103 0.0 3.2 0.00 0.00 0.00 60 1012.2
20260505013036 14 0 0.0 3.2 0.00 0.00 0.00 60 1012.2
20260505011535 15 103 0.0 3.2 0.00 0.00 0.00 59 1012.1
20260505010031 15 0 0.0 3.2 0.00 0.00 0.00 58 1011.9
20260505004536 16 103 0.0 4.8 0.00 0.00 0.00 55 1011.8
20260505003035 16 82 0.0 8.0 0.00 0.00 0.00 54 1011.8
20260505001546 16 33 1.6 4.8 0.00 0.00 0.00 53 1011.9
20260505000041 17 171 1.6 12.9 0.00 0.00 0.00 52 1011.8
20260504234533 17 172 0.0 14.5 0.00 0.00 0.00 51 1011.7
20260504233036 17 167 1.6 12.9 0.00 0.00 0.00 50 1011.6
20260504231553 17 0 0.0 9.7 0.00 0.00 0.00 50 1011.5
20260504230035 17 0 0.0 12.9 0.00 0.00 0.00 49 1011.3
20260504224538 18 62 6.4 24.1 0.00 0.00 0.00 48 1011.4
20260504223033 18 159 3.2 8.0 0.00 0.00 0.00 51 1011.5
20260504221535 17 0 0.0 4.8 0.00 0.00 0.00 54 1011.6
20260504220036 17 0 0.0 9.7 0.00 0.00 0.00 53 1011.6
20260504214534 17 182 0.0 9.7 0.00 0.00 0.00 53 1011.6
20260504213034 17 0 0.0 4.8 0.00 0.00 0.00 52 1011.6
20260504211539 17 0 1.6 11.3 0.00 0.00 0.00 52 1011.6
20260504210054 17 336 1.6 12.9 0.00 0.00 0.00 51 1011.6
20260504204541 18 292 1.6 19.3 0.00 0.00 0.00 48 1011.4
20260504203037 18 345 1.6 14.5 0.00 0.00 0.00 45 1011.4
20260504201535 19 307 3.2 12.9 0.00 0.00 0.00 44 1011.3
20260504200036 19 321 4.8 16.1 0.00 0.00 0.00 42 1011.1
20260504194550 19 257 1.6 19.3 0.00 0.00 0.00 44 1011.2
20260504193034 19 312 3.2 16.1 0.00 0.00 0.00 44 1011.5
20260504191543 20 207 6.4 19.3 0.00 0.00 0.00 43 1011.6
20260504190043 20 80 3.2 17.7 0.00 0.00 0.00 43 1011.7
20260504184539 19 36 3.2 12.9 0.00 0.00 0.00 46 1012.0
20260504183037 18 64 8.0 17.7 0.00 0.00 0.00 46 1011.8
20260504181543 18 59 3.2 22.5 0.00 0.00 0.00 51 1012.1
20260504180055 17 235 8.0 25.7 0.00 0.00 0.00 52 1012.4
20260504174535 17 114 8.0 22.5 0.00 0.00 0.00 52 1012.4
20260504173036 16 340 1.6 12.9 0.00 0.00 0.00 56 1012.8
20260504171535 16 291 6.4 17.7 0.00 0.00 0.00 55 1012.8
20260504081537 7 106 4.8 17.7 0.00 0.00 0.00 59 1014.7
20260504044536 8 165 1.6 6.4 0.00 0.00 0.00 47 1015.4
20260504043034 8 123 1.6 6.4 0.00 0.00 0.00 47 1015.3
20260504041536 8 145 3.2 6.4 0.00 0.00 0.00 47 1015.4
20260504040043 8 98 1.6 4.8 0.00 0.00 0.00 47 1015.4
20260504034547 8 95 1.6 4.8 0.00 0.00 0.00 47 1015.5
20260504033036 8 180 0.0 6.4 0.00 0.00 0.00 46 1015.6
20260504031545 8 73 1.6 4.8 0.00 0.00 0.00 46 1015.5
20260504030041 8 100 0.0 4.8 0.00 0.00 0.00 45 1015.6
20260504024542 8 33 0.0 3.2 0.00 0.00 0.00 45 1015.6